EW8041 Weather Reports


time (UTC)temp
F
wind
direction
speed
knots
gust
knots
rain 1hr
in
rain 24hr
in
rain mn
in
humidity
%
barometer
mb
20211017143531 58 293 0.0 2.6 0.00 0.00 0.00 68 1022.1
20211017142533 58 113 0.0 0.9 0.00 0.00 0.00 71 1022.1
20211017141516 57 0.0 1.7 0.00 0.00 0.00 70 1022.1
20211017140518 56 321 0.0 2.6 0.00 0.00 0.00 73 1022.0
20211017135519 56 0.0 0.0 0.00 0.00 0.00 76 1021.9
20211017134521 54 0.0 0.0 0.00 0.00 0.00 77 1022.0
20211017133516 53 0.0 0.0 0.00 0.00 0.00 80 1022.0
20211017132523 52 0.0 0.0 0.00 0.00 0.00 82 1021.8
20211017131525 51 0.0 0.0 0.00 0.00 0.00 84 1021.9
20211017130526 50 0.0 0.0 0.00 0.00 0.00 85 1021.8
20211017125528 49 0.0 0.0 0.00 0.00 0.00 87 1021.7
20211017124529 47 0.0 0.0 0.00 0.00 0.00 94 1021.6
20211017123531 46 0.0 0.0 0.00 0.00 0.00 95 1021.7
20211017122532 45 0.0 0.0 0.00 0.00 0.00 96 1021.5
20211017121515 44 0.0 0.0 0.00 0.00 0.00 97 1021.5
20211017120517 44 0.0 0.0 0.00 0.00 0.00 97 1021.4
20211017115518 44 0.0 0.0 0.00 0.00 0.00 97 1021.3
20211017114519 44 0.0 0.0 0.00 0.00 0.00 97 1021.2
20211017113521 44 0.0 0.0 0.00 0.00 0.00 97 1021.2
20211017112516 44 0.0 0.0 0.00 0.00 0.00 97 1021.1
20211017111524 45 0.0 0.0 0.00 0.00 0.00 97 1021.1
20211017110525 45 0.0 0.0 0.00 0.00 0.00 97 1021.1
20211017105527 45 0.0 0.0 0.00 0.00 0.00 96 1021.0
20211017104529 45 0.0 0.0 0.00 0.00 0.00 96 1021.0
20211017103530 46 0.0 0.0 0.00 0.00 0.00 95 1020.9
20211017102531 46 0.0 0.0 0.00 0.00 0.00 94 1020.9
20211017101532 46 0.0 0.0 0.00 0.00 0.00 94 1020.8
20211017100515 46 0.0 0.0 0.00 0.00 0.00 94 1020.7
20211017095517 46 0.0 0.0 0.00 0.00 0.00 95 1020.7
20211017094518 46 0.0 0.0 0.00 0.00 0.00 94 1020.7
20211017093520 46 0.0 0.0 0.00 0.00 0.00 94 1020.7
20211017092521 46 0.0 0.0 0.00 0.00 0.00 94 1020.6
20211017091516 46 0.0 0.0 0.00 0.00 0.00 94 1020.5
20211017090518 46 0.0 0.0 0.00 0.00 0.00 92 1020.4
20211017085520 47 0.0 0.0 0.00 0.00 0.00 91 1020.5
20211017084521 47 0.0 0.0 0.00 0.00 0.00 93 1020.5
20211017083526 47 0.0 0.0 0.00 0.00 0.00 91 1020.6
20211017082525 47 0.0 0.0 0.00 0.01 0.00 91 1020.6
20211017081526 48 0.0 0.0 0.00 0.01 0.00 89 1020.4
20211017080528 48 0.0 0.0 0.00 0.01 0.00 89 1020.5
20211017075529 48 0.0 0.0 0.00 0.01 0.00 87 1020.5
20211017074531 48 0.0 0.0 0.00 0.01 0.00 87 1020.4
20211017073532 49 0.0 0.0 0.00 0.01 0.00 86 1020.4
20211017072516 49 0.0 0.0 0.00 0.01 0.00 87 1020.4
20211017071517 49 0.0 0.0 0.00 0.02 0.00 86 1020.5
20211017070518 48 0.0 0.0 0.00 0.02 0.00 89 1020.4
20211017065520 48 0.0 0.0 0.00 0.02 0.00 91 1020.4
20211017064516 48 0.0 0.0 0.00 0.02 0.00 90 1020.3
20211017063517 48 0.0 0.0 0.00 0.02 0.00 91 1020.3
20211017062518 48 0.0 0.0 0.00 0.02 0.00 93 1020.2
20211017061519 48 0.0 0.0 0.00 0.03 0.00 94 1020.1
20211017060520 48 0.0 0.0 0.00 0.04 0.00 94 1020.1
20211017055522 48 0.0 0.0 0.00 0.04 0.00 92 1020.0
20211017054523 48 0.0 0.0 0.00 0.07 0.00 93 1020.0
20211017053525 48 0.0 0.0 0.00 0.19 0.00 94 1020.0
20211017052526 48 0.0 0.0 0.00 0.23 0.00 92 1019.9
20211017051527 48 0.0 0.0 0.00 0.38 0.00 92 1020.1
20211017050523 48 0.0 0.0 0.00 0.47 0.00 91 1020.0
20211017045518 49 0.0 0.0 0.00 0.48 0.48 92 1019.9
20211017044527 49 0.0 0.0 0.00 0.48 0.48 91 1019.9
20211017043528 49 0.0 0.0 0.00 0.48 0.48 91 1020.0
20211017042529 49 0.0 0.0 0.00 0.48 0.48 91 1020.0
20211017041530 50 0.0 0.0 0.00 0.48 0.48 89 1020.0
20211017040527 50 0.0 0.0 0.00 0.48 0.48 90 1020.1
20211017035528 50 0.0 0.0 0.00 0.48 0.48 88 1020.1
20211017034529 50 0.0 0.0 0.00 0.81 0.48 86 1020.0
20211017033530 51 0.0 0.0 0.00 0.81 0.48 87 1020.0
20211017032531 51 0.0 0.0 0.00 0.81 0.48 86 1020.0
20211017031532 51 0.0 0.0 0.00 0.81 0.48 85 1020.0
20211017030515 52 0.0 0.0 0.00 0.81 0.48 84 1019.9
20211017025523 52 0.0 0.0 0.00 0.81 0.48 81 1019.7
20211017024519 53 0.0 0.0 0.00 0.81 0.48 79 1019.6
20211017023532 53 0.0 0.0 0.00 0.81 0.48 77 1019.6
20211017022515 53 0.0 0.0 0.00 0.81 0.48 74 1019.6
20211017021517 54 0.0 0.0 0.00 0.81 0.48 73 1019.5
20211017020518 54 0.0 0.0 0.00 0.82 0.48 72 1019.4
20211017015519 54 0.0 0.0 0.00 0.82 0.48 73 1019.3
20211017014521 54 0.0 0.0 0.00 0.82 0.48 73 1019.3
20211017013521 55 0.0 0.0 0.00 0.83 0.48 75 1019.3
20211017012522 55 0.0 0.0 0.00 0.84 0.48 72 1019.2
20211017011523 56 0.0 0.0 0.00 0.84 0.48 70 1019.1
20211017010525 56 0.0 0.0 0.00 1.00 0.48 68 1019.0
20211017005526 57 23 0.0 0.9 0.00 1.08 0.48 66 1018.8
20211017004521 57 293 0.9 1.7 0.00 1.08 0.48 65 1018.7
20211017003517 58 0.0 0.0 0.00 1.08 0.48 65 1018.7
20211017002525 58 0.0 0.0 0.00 1.08 0.48 64 1018.7
20211017001526 59 0.0 0.0 0.00 1.08 0.48 63 1018.5
20211017000528 59 0.0 0.0 0.00 1.08 0.48 62 1018.4
20211016235529 60 331 0.9 3.5 0.00 1.08 0.48 55 1018.3
20211016234530 60 332 0.9 3.5 0.00 1.08 0.48 55 1018.2
20211016233526 61 301 1.7 3.5 0.00 1.08 0.48 54 1018.1
20211016232528 61 289 1.7 3.5 0.00 1.08 0.48 53 1017.9
20211016231530 62 326 1.7 6.1 0.00 1.08 0.48 51 1017.9
20211016230532 62 330 1.7 4.3 0.00 1.08 0.48 50 1017.9
20211016225532 63 295 2.6 4.3 0.00 1.08 0.48 49 1017.9
20211016224515 63 323 3.5 6.1 0.00 1.08 0.48 49 1017.8
20211016223516 63 330 3.5 5.2 0.00 1.08 0.48 48 1017.8
20211016222518 64 349 3.5 9.6 0.00 1.08 0.48 46 1017.8
20211016221520 64 329 4.3 8.7 0.00 1.08 0.48 45 1017.6
20211016220521 65 336 3.5 5.2 0.00 1.08 0.48 45 1017.7
20211016215522 65 284 3.5 7.0 0.00 1.08 0.48 45 1017.5
20211016214524 65 321 2.6 6.1 0.00 1.08 0.48 44 1017.5
20211016213525 65 330 4.3 7.0 0.00 1.08 0.48 43 1017.5
20211016212526 65 343 3.5 6.1 0.00 1.08 0.48 44 1017.4
20211016211527 65 317 3.5 6.1 0.00 1.08 0.48 45 1017.3
20211016210523 65 306 4.3 6.1 0.00 1.08 0.48 45 1017.3
20211016205524 65 315 4.3 7.0 0.00 1.08 0.48 43 1017.4
20211016204525 65 297 2.6 6.1 0.00 1.08 0.48 44 1017.4
20211016203527 65 338 4.3 6.1 0.00 1.08 0.48 43 1017.4
20211016202522 65 337 2.6 5.2 0.00 1.08 0.48 44 1017.3
20211016201517 66 43 2.6 3.5 0.00 1.08 0.48 42 1017.3
20211016200536 66 317 4.3 7.0 0.00 1.08 0.48 42 1017.2
20211016195521 66 331 3.5 7.0 0.00 1.08 0.48 40 1017.2
20211016194523 66 319 4.3 7.8 0.00 1.08 0.48 39 1017.1
20211016193524 65 331 4.3 7.8 0.00 1.08 0.48 42 1017.0
20211016192525 66 301 4.3 9.6 0.00 1.08 0.48 43 1017.0
20211016191526 65 347 5.2 7.8 0.00 1.08 0.48 43 1017.1
20211016190528 65 319 4.3 13.0 0.00 1.08 0.48 45 1017.3
20211016185529 65 281 1.7 5.2 0.00 1.08 0.48 47 1017.5
20211016184530 65 360 2.6 4.3 0.00 1.08 0.48 47 1017.6
20211016183531 65 324 2.6 6.1 0.00 1.08 0.48 46 1017.7
20211016182526 65 291 4.3 7.8 0.00 1.08 0.48 44 1017.8
20211016181516 65 32 4.3 6.1 0.00 1.08 0.48 47 1017.8
20211016180516 66 332 3.5 6.1 0.00 1.08 0.48 46 1017.8
20211016175518 65 321 5.2 8.7 0.00 1.08 0.48 45 1018.0
20211016174520 65 325 3.5 6.1 0.00 1.08 0.48 47 1018.0
20211016173516 65 291 4.3 6.1 0.00 1.08 0.48 46 1018.2
20211016172517 66 300 5.2 9.6 0.00 1.08 0.48 47 1018.5
20211016171518 66 349 2.6 4.3 0.00 1.08 0.48 50 1018.6
20211016170520 65 339 2.6 6.1 0.00 1.08 0.48 50 1018.6
20211016165521 65 291 4.3 8.7 0.00 1.08 0.48 50 1018.7
20211016164522 65 313 3.5 6.1 0.00 1.08 0.48 51 1018.7
20211016163523 0 305 5.2 6.1 0.00 1.08 0.48 1018.7
20211016162524 65 308 5.2 9.6 0.00 1.08 0.48 50 1018.6
20211016161526 65 2 2.6 4.3 0.00 1.08 0.48 55 1018.6
20211016160521 64 58 2.6 3.5 0.00 1.08 0.48 59 1018.5
20211016155517 63 300 4.3 7.8 0.00 1.08 0.48 56 1018.4
20211016154530 63 303 4.3 7.8 0.00 1.08 0.48 57 1018.4
20211016153532 63 289 1.7 4.3 0.00 1.08 0.48 61 1018.4
20211016152515 63 283 2.6 5.2 0.00 1.08 0.48 61 1018.5
20211016151516 62 307 2.6 4.3 0.00 1.08 0.48 61 1018.4
20211016150518 60 314 5.2 10.4 0.00 1.08 0.48 63 1018.4
20211016145519 61 321 4.3 6.1 0.00 1.08 0.48 64 1018.3
20211016144521 60 312 2.6 5.2 0.00 1.08 0.48 69 1018.3